[[{"header":{"parameterUnit":"m.s-1","parameterCategory":1,"la1":30.2991,"la2":30.254,"lo1":-89.0895,"lo2":-89.0444,"dy":0.0017,"dx":0.0017,"nx":28,"ny":28,"refTime":"2024-06-28T03:00:00:Z","depth":0,"parameterNumber":2,"parameterNumberName":"U-component_of_WINDS"},"data":[0,0,0,0,0,0,0,0,0,0,0,0,0,0,0,0,0,0,0,0,0,0,0,0,0,0,0,0,0,0,0,0,0,0,0,0,0,0,0,0,0,0,0,0,0,0,0,0,0,0,0,0,0,0,0,0,0,0,2.9493,2.9494,0,2.9604,2.9605,2.9607,2.9598,2.9596,2.9594,2.9593,2.9705,2.9709,2.9713,0,0,0,0,0,0,0,0,0,0,0,0,0,2.9268,2.9272,2.9493,2.9494,2.9496,2.9604,2.9605,2.9607,2.9598,2.9596,2.9594,2.9592,2.9703,2.9708,2.9714,0,0,0,0,0,0,0,0,0,0,0,0,0,2.9371,2.9273,2.9492,2.9504,2.9506,2.9604,2.9605,2.9607,2.9598,2.9596,2.9593,2.9591,2.9701,2.9708,2.9715,2.9807,0,0,2.9735,2.9738,0,0,0,0,0,0,0,0,2.9365,2.9379,2.9501,2.9503,2.9506,2.9584,2.9567,2.9674,2.9599,2.9563,2.9593,2.959,2.9666,2.9676,2.9702,2.9812,2.9817,2.9736,2.974,2.9743,2.9745,0,0,0,0,0,0,0,2.9358,2.9374,2.9537,2.9503,2.9506,2.9502,2.9514,2.9587,2.9628,2.9566,2.9566,2.9579,2.9667,2.9696,2.9705,2.9819,2.9736,2.9742,2.9746,2.9749,3.0005,3.0007,0,0,0,0,0,0,2.9349,2.9368,2.9533,2.954,2.9428,2.9508,2.9522,2.9562,2.9627,2.9634,2.9581,2.9578,2.9685,2.9697,2.9709,2.9818,2.9743,2.9749,2.9753,3.0002,3.0005,3.0008,0,0,0,0,0,0,2.9344,2.9363,2.9529,2.9454,2.9475,2.9515,2.956,2.9565,2.9594,2.9638,2.9645,2.9603,2.9684,2.9699,2.9782,2.9821,2.9752,2.9759,2.9999,3.0003,3.0007,3.0038,0,0,0,0,0,0,2.9337,2.9362,2.9399,2.9455,2.9479,2.9601,2.9563,2.9569,2.9606,2.9603,2.966,2.9668,2.9683,2.9771,2.9788,2.983,2.9764,2.9995,3.0001,3.0006,3.0034,3.0043,3.0051,0,0,0,0,0,2.933,2.9403,2.94,2.942,2.9526,2.9604,2.9617,2.9634,2.9609,2.9645,2.9673,2.9666,2.9815,2.978,2.9799,2.9843,2.9993,2.9999,3.0005,3.003,3.0041,3.005,0,0,0,0,0,0,2.935,2.9411,2.9409,2.9503,2.9548,2.9602,2.9648,2.9646,2.9698,2.9694,2.9712,2.9725,2.9807,2.9833,2.9794,2.9933,2.99,2.991,2.9913,2.9924,2.9932,2.9922,2.977,0,0,0,0,0,2.9366,2.9425,2.9475,2.9553,2.9576,2.9608,2.9643,2.9652,2.9699,2.9718,2.9752,2.9797,2.9853,2.989,2.9945,3.0038,3.0048,3.0077,3.0086,3.0092,3.01,3.0147,3.0159,3.0028,3.0028,3.0028,0,0,2.9399,2.9439,2.9476,2.9558,2.9594,2.9653,2.9624,2.9689,2.9732,2.9727,2.9806,2.9833,2.9884,2.9971,3.0011,2.9996,3.0139,3.01,3.0105,3.0109,3.0155,3.0167,3.0178,3.0033,3.0032,3.0031,0,0,2.9488,2.9526,2.9594,2.963,2.9685,2.9705,2.9721,2.9775,2.9792,2.9872,2.9869,2.992,3.0018,3.0053,3.0084,3.0184,3.0177,3.0201,3.0244,3.029,3.03,3.0309,3.0341,3.0353,3.0209,3.021,3.021,0,2.9522,2.9611,2.9629,2.9693,2.9728,2.9727,2.9793,2.9828,2.9897,2.992,2.9903,3.0023,3.0058,3.0151,3.0175,3.0202,3.0218,3.0194,3.0298,3.0307,3.0316,3.0346,3.0359,3.0212,3.0211,3.0211,3.0211,0,2.9648,2.971,2.9758,2.9824,2.9865,2.993,2.9956,2.9994,2.9999,3.0021,3.01,3.0142,3.0203,3.0226,3.0232,3.0319,3.0308,3.0294,3.0261,3.033,3.0359,3.0371,3.0215,3.0214,3.0213,3.0213,0,0,2.9753,2.9827,2.9844,2.9872,2.9932,2.9979,3.0043,3.0103,3.0134,3.0182,3.0234,3.0315,3.0302,3.0337,3.0347,3.0387,3.0458,3.0368,3.0369,3.038,3.0552,3.056,3.0574,3.0455,3.0458,3.046,3.0547,0,2.9846,2.9959,2.9976,3.0076,3.0131,3.0129,3.0184,3.0225,3.0247,3.0295,3.0319,3.0375,3.0355,3.0375,3.0416,3.0441,3.0493,3.0436,3.0501,3.0503,3.0485,3.059,3.0599,3.0679,3.0559,3.0561,3.0562,0,2.9969,3.0018,3.0123,3.0172,3.0195,3.0245,3.0299,3.0347,3.0392,3.0405,3.0443,3.0447,3.051,3.0476,3.0562,3.0522,3.055,3.0567,3.057,3.0575,3.0535,3.0594,3.0706,3.0717,3.0581,3.0579,3.0578,0,3.003,3.0124,3.0198,3.0223,3.0282,3.0316,3.0342,3.0385,3.0419,3.0466,3.0488,3.0542,3.0571,3.0612,3.063,3.0604,3.0714,3.0682,3.0723,3.0723,3.0745,3.0743,3.0859,3.0768,3.0767,3.0767,3.0767,0,3.013,3.0193,3.0226,3.0271,3.0341,3.0358,3.0427,3.0451,3.0489,3.0537,3.054,3.0585,3.0607,3.0654,3.0669,3.0735,3.075,3.0759,3.0762,3.0758,3.0756,3.0774,3.0768,3.077,3.077,3.0769,3.0769,0,3.021,3.0235,3.0314,3.0363,3.0377,3.0426,3.0467,3.0509,3.053,3.0591,3.0606,3.0638,3.0694,3.0716,3.0785,3.0794,3.087,3.087,3.0854,3.0854,3.0893,3.0888,3.1024,3.1041,3.0941,3.0942,3.0942,0,3.0271,3.0319,3.0373,3.0405,3.0432,3.0485,3.0519,3.0538,3.0573,3.0626,3.0662,3.0717,3.0763,3.0852,3.088,3.0932,3.093,3.0974,3.0938,3.0931,3.0927,3.0923,3.0926,3.098,3.0981,3.0982,3.0983,0,3.0374,3.0383,3.0433,3.0486,3.0527,3.0569,3.0611,3.0637,3.0662,3.0701,3.0758,3.0793,3.0862,3.0916,3.0969,3.0994,3.0991,3.0994,3.1006,3.1001,3.0988,3.0992,3.0869,3.0991,3.099,3.0989,3.0989,3.0989,3.0444,3.0485,3.0529,3.0583,3.0616,3.0654,3.0695,3.0721,3.0769,3.0826,3.0834,3.0894,3.0935,3.1006,3.1033,3.1079,3.1067,3.1085,3.1089,3.1092,3.1093,3.0983,3.1089,3.1089,3.1089,3.1088,3.1088,0,3.0544,3.0572,3.0622,3.0679,3.0721,3.0716,3.0761,3.0796,3.0849,3.0888,3.0932,3.0995,3.1047,3.1079,3.1131,3.1161,3.1161,3.1174,3.117,3.1175,3.1103,3.1086,3.1173,3.1173,3.1173,3.1173,3.1173,3.1173,3.0601,3.067,3.0684,3.0768,3.0795,3.0854,3.0879,3.0913,3.0944,3.1015,3.1058,3.1079,3.1114,3.1168,3.1214,3.1222,3.1239,3.1253,3.1259,3.119,3.1181,3.1172,3.1156,3.1257,3.1257,3.1328,3.1328,3.1329]},{"header":{"parameterUnit":"m.s-1","parameterCategory":1,"la1":30.2991,"la2":30.254,"lo1":-89.0895,"lo2":-89.0444,"dy":0.0017,"dx":0.0017,"nx":28,"ny":28,"refTime":"2024-06-28T03:00:00:Z","depth":0,"parameterNumber":3,"parameterNumberName":"V-component_of_WINDS"},"data":[0,0,0,0,0,0,0,0,0,0,0,0,0,0,0,0,0,0,0,0,0,0,0,0,0,0,0,0,0,0,0,0,0,0,0,0,0,0,0,0,0,0,0,0,0,0,0,0,0,0,0,0,0,0,0,0,0,0,4.8861,4.8863,0,4.9066,4.9068,4.9071,4.907,4.9068,4.9065,4.9062,4.9268,4.9276,4.9284,0,0,0,0,0,0,0,0,0,0,0,0,0,4.8462,4.8469,4.8861,4.8863,4.8866,4.9066,4.9068,4.9071,4.9071,4.9068,4.9064,4.9061,4.9266,4.9275,4.9285,0,0,0,0,0,0,0,0,0,0,0,0,0,4.8648,4.8472,4.886,4.889,4.8894,4.9065,4.9069,4.9072,4.9071,4.9067,4.9063,4.906,4.9262,4.9274,4.9286,4.9439,0,0,4.9322,4.9327,0,0,0,0,0,0,0,0,4.8637,4.8662,4.8883,4.8888,4.8894,4.9039,4.9003,4.9195,4.9072,4.9004,4.9062,4.9058,4.9195,4.9212,4.9259,4.9449,4.9458,4.9323,4.9331,4.9336,4.9339,0,0,0,0,0,0,0,4.8624,4.8654,4.8942,4.8886,4.8893,4.8891,4.8913,4.904,4.9119,4.901,4.901,4.9035,4.9197,4.9248,4.9264,4.9461,4.9323,4.9334,4.9341,4.9346,4.9784,4.9788,0,0,0,0,0,0,4.8606,4.8643,4.8935,4.8948,4.8753,4.8901,4.8926,4.8996,4.9118,4.9133,4.9038,4.9034,4.9229,4.925,4.9271,4.9458,4.9336,4.9347,4.9354,4.978,4.9785,4.979,0,0,0,0,0,0,4.8598,4.8632,4.8927,4.8796,4.8833,4.8912,4.8991,4.9002,4.9053,4.9139,4.9153,4.9076,4.9227,4.9254,4.9397,4.9465,4.9352,4.9363,4.9774,4.9781,4.9787,4.9832,0,0,0,0,0,0,4.8586,4.8629,4.869,4.8797,4.884,4.9052,4.8995,4.9009,4.9074,4.9071,4.9178,4.9192,4.9226,4.9379,4.9409,4.9479,4.9372,4.9769,4.9777,4.9785,4.9825,4.984,4.9852,0,0,0,0,0,4.8572,4.8694,4.8693,4.8728,4.8918,4.9056,4.908,4.9118,4.908,4.914,4.9195,4.9189,4.9452,4.9394,4.9428,4.9502,4.9764,4.9775,4.9785,4.9819,4.9837,4.9852,0,0,0,0,0,0,4.8592,4.8709,4.8709,4.887,4.8953,4.9055,4.9133,4.9136,4.923,4.9223,4.9264,4.9288,4.9431,4.9481,4.9414,4.9655,4.9603,4.9621,4.9618,4.9636,4.9649,4.9634,4.9382,0,0,0,0,0,4.8615,4.8719,4.8815,4.8947,4.8989,4.9054,4.9115,4.9137,4.9224,4.9259,4.9324,4.9408,4.9509,4.9575,4.9673,4.9832,4.9854,4.9899,4.9913,4.9923,4.9938,5.0023,5.0044,4.9823,4.9823,4.9823,0,0,4.8664,4.8741,4.8803,4.8953,4.902,4.9124,4.9083,4.9196,4.9273,4.9275,4.9415,4.9465,4.9561,4.9712,4.9781,4.9757,5.0003,4.9936,4.9944,4.9953,5.0036,5.0056,5.0075,4.983,4.9829,4.9827,0,0,4.8806,4.8876,4.8993,4.906,4.9163,4.9205,4.9232,4.9335,4.9369,4.9509,4.9512,4.9603,4.9778,4.9845,4.9902,5.0068,5.0064,5.0098,5.0169,5.0251,5.0269,5.0284,5.0342,5.0362,5.0112,5.0112,5.0112,0,4.8854,4.9013,4.9052,4.9165,4.923,4.9237,4.9354,4.9418,4.9546,4.9589,4.9561,4.9779,4.9844,5.001,5.005,5.0096,5.0128,5.0086,5.0263,5.028,5.0295,5.035,5.0372,5.0116,5.0115,5.0115,5.0115,0,4.9065,4.9176,4.9258,4.9382,4.9456,4.9571,4.9625,4.9694,4.9709,4.9753,4.9894,4.9972,5.0085,5.0126,5.0141,5.0294,5.0275,5.0255,5.0203,5.0318,5.0371,5.0392,5.012,5.0119,5.0118,5.0117,0,0,4.9228,4.9371,4.9401,4.9456,4.9568,4.9653,4.9767,4.9879,4.9937,5.0024,5.0119,5.0265,5.0247,5.0311,5.0334,5.0406,5.053,5.0377,5.038,5.0402,5.07,5.0715,5.0739,5.0529,5.0533,5.0536,5.0692,0,4.9381,4.9585,4.9622,4.9799,4.99,4.9907,5.0006,5.0084,5.0127,5.0218,5.0265,5.0368,5.0336,5.0375,5.0447,5.05,5.0591,5.0489,5.0615,5.062,5.0591,5.0767,5.0783,5.0927,5.0713,5.0717,5.0719,0,4.9588,4.9681,4.9869,4.9966,5.0009,5.0098,5.0202,5.0289,5.0376,5.0402,5.0474,5.0488,5.0603,5.0546,5.0705,5.0635,5.0688,5.0722,5.0728,5.0741,5.0676,5.0784,5.0973,5.0995,5.0752,5.0749,5.0747,0,4.9686,4.9858,4.9992,5.004,5.0156,5.0218,5.0269,5.0353,5.0417,5.0507,5.0549,5.0651,5.0707,5.0784,5.0824,5.0779,5.0979,5.0926,5.1003,5.1002,5.1045,5.1042,5.1245,5.108,5.108,5.1079,5.1079,0,4.9853,4.9967,5.0038,5.012,5.0247,5.0287,5.0411,5.046,5.0534,5.0625,5.0636,5.072,5.0768,5.0859,5.089,5.1016,5.1041,5.1064,5.1071,5.1063,5.106,5.1099,5.109,5.1085,5.1084,5.1083,5.1082,0,4.9984,5.0036,5.0183,5.0281,5.0308,5.0397,5.048,5.0558,5.0601,5.0715,5.0744,5.0811,5.0918,5.0965,5.1097,5.1118,5.1261,5.1261,5.1232,5.1234,5.1308,5.13,5.1543,5.1576,5.139,5.1391,5.1393,0,5.0087,5.0175,5.0283,5.0345,5.0398,5.0497,5.0563,5.0605,5.0672,5.0777,5.0843,5.095,5.1038,5.1208,5.1267,5.1367,5.1369,5.1447,5.1384,5.1373,5.1369,5.1363,5.1371,5.1459,5.146,5.1462,5.1463,0,5.0265,5.0286,5.0381,5.0484,5.0562,5.0645,5.0727,5.0776,5.083,5.0904,5.1015,5.1083,5.1217,5.1323,5.1426,5.1476,5.1478,5.1482,5.1505,5.1498,5.1477,5.1489,5.1262,5.1477,5.1475,5.1474,5.1474,5.1473,5.0385,5.0462,5.055,5.0654,5.072,5.0795,5.0874,5.0926,5.1019,5.1132,5.1151,5.1267,5.135,5.1489,5.1543,5.1633,5.1614,5.1648,5.1656,5.1664,5.1668,5.1463,5.1652,5.1652,5.1652,5.1651,5.1651,0,5.0562,5.0618,5.0714,5.0827,5.0909,5.0905,5.0994,5.1062,5.1165,5.1242,5.1329,5.1454,5.1556,5.1622,5.1725,5.1784,5.1788,5.181,5.1805,5.1817,5.1679,5.1649,5.1805,5.1805,5.1805,5.1805,5.1805,5.1805,5.0663,5.0794,5.0825,5.0987,5.1042,5.1158,5.1209,5.1277,5.1339,5.1479,5.1564,5.1607,5.168,5.1787,5.188,5.1897,5.1933,5.1956,5.1972,5.1843,5.1826,5.1811,5.1783,5.1964,5.1965,5.2102,5.2103,5.2104]}]]